Tracking 31027 objects as of 19-Jul-2025
HD Live streaming from Space Station
objects crossing your sky now

COSMOS 2318 (GLONASS)

Track COSMOS 2318 (GLONASS) now!
COSMOS 2318 (GLONASS) is classified as:


NORAD ID: 23622
Int'l Code: 1995-037C
Perigee: 19,099.8 km
Apogee: 19,174.3 km
Inclination: 65.5 °
Period: 675.7 minutes
Semi major axis: 25508 km
RCS: 3.5243 m2 (large)
Launch date: July 24, 1995
Source: Commonwealth of Independent States (former USSR) (CIS)
Launch site: TYURATAM MISSILE AND SPACE COMPLEX (TTMTR)
Your satellite tracking list
Your tracking list is empty




NASA's NSSDC Master Catalog

Two Line Element Set (TLE):
1 23622U 95037C   25199.37232346  .00000115  00000-0  00000-0 0  9992
2 23622  65.4723 213.6369 0014595  70.5337 291.6854  2.13102014233123
Source of the keplerian elements: AFSPC